Regional Weather Roundup
Issued by NWS Northern Indiana

Home | Current Version | Previous Version | Text Only | Print | Product List | Glossary On
Versions: 1 2 3 4 5 6 7 8 9 10 11 12 13 14 15 16 17 18 19 20 21 22 23 24 25 26 27 28 29 30 31 32 33 34 35 36 37 38 39 40 41 42 43 44 45 46 47 48 49 50
000
ASUS43 KIWX 021710
RWRIWX

KIWX WEATHER ROUNDUP
NATIONAL WEATHER SERVICE NORTHERN INDIANA
100 PM EDT TUE JUN 02 2015

NOTE: "FAIR" INDICATES FEW OR NO CLOUDS BELOW 12,000 FEET WITH NO
SIGNIFICANT WEATHER AND/OR OBSTRUCTIONS TO VISIBILITY.

* THESE STATIONS ARE NOT UNDER NWS QUALITY CONTROL. THEY ALSO MAY NOT
  REPORT WEATHER SUCH AS PRECIPITATION OR FOG.

INZ001>027-021800-
NORTHERN INDIANA

CITY           SKY/WX    TMP DP  RH WIND       PRES   REMARKS
GARY*          MOSUNNY   64  52  63 NE8       30.18F
VALPARAISO     SUNNY     67  49  52 E13       30.18F
MICHIGAN CITY* PTSUNNY   64  48  55 N6        30.18F
LAPORTE*       MOSUNNY   67  50  55 E7        30.19S
KNOX*          PTSUNNY   64  46  52 E9        30.18R
SOUTH BEND     MOSUNNY   66  47  50 SE6       30.19F
ELKHART*       MOSUNNY   66  48  52 E5        30.19F
GOSHEN         MOSUNNY   67  50  54 E8        30.18F
MONTICELLO*    MOSUNNY   64  51  61 NE7       30.16F
LOGANSPORT*    MOSUNNY   64  46  52 E8        30.17F
ROCHESTER*     MOSUNNY   68  52  56 E7        30.18S
WARSAW*        MOSUNNY   64  50  59 E9        30.19S
ANGOLA*        MOSUNNY   66  57  72 SE7       30.19S
FORT WAYNE     PTSUNNY   65  52  62 E14       30.19S
HUNTINGTON*    PTSUNNY   64  51  63 E14       30.17F
PERU/GRISSOM   MOSUNNY   65  53  64 E12       30.16S
MARION*        CLOUDY    61  51  69 NE13      30.17F

$$
INZ028>050-021800-
CENTRAL INDIANA

CITY           SKY/WX    TMP DP  RH WIND       PRES   REMARKS
LAFAYETTE      SUNNY     65  52  62 E8        30.15F
KOKOMO*        PTSUNNY   63  52  67 E13       30.16F
MUNCIE*        CLOUDY    58  50  75 E13       30.18S
INDIANAPOLIS   MOSUNNY   65  50  58 E12       30.13F

$$
MIZ043>046-050>051-056>058-064>065-071>073-077>080-021800-
SOUTHWEST LOWER MICHIGAN

CITY           SKY/WX    TMP DP  RH WIND       PRES   REMARKS
BATTLE CREEK   SUNNY     66  46  48 SE8       30.20F
BENTON HARBOR  SUNNY     61  48  62 NW9       30.19F
COLDWATER*     MOSUNNY   65  49  54 E9        30.19F
HILLSDALE*     PTSUNNY   66  49  53 E5        30.20S
HOLLAND        SUNNY     67  43  41 NE6       30.20F
GRAND RAPIDS   MOSUNNY   66  46  48 E6        30.20F
KALAMAZOO      SUNNY     67  47  48 NE7       30.20F
STURGIS*       PTSUNNY   64  48  55 E10G20    30.18F
THREE RIVERS*  FAIR      65  48  52 E9        30.19F

$$
OHZ001>008-015>018-024>025-021800-
NORTHWEST OHIO

CITY           SKY/WX    TMP DP  RH WIND       PRES   REMARKS
WAUSEON*       PTSUNNY   64  52  63 E12       30.20S
DEFIANCE       PTSUNNY   66  51  58 NE8       30.19F
FINDLAY        MOSUNNY   65  51  60 NE15      30.17S
TOLEDO EXPRESS MOSUNNY   65  49  56 NE15G22   30.20R
TOLEDO METCALF MOSUNNY   64  51  62 NE14      30.21S
LIMA           CLOUDY    62  53  72 NE10      30.17F

$$
AND FOR LAKE MICHIGAN COASTAL AND OPEN LAKE BUOY OBSERVATIONS

STATION/POSITION TEMP    WIND        PRES    VSBY  WAVE
                 AIR SEA DIR/SP/G                  HT/PER
                 (F)     (DEG/KT/KT) (MB)    (MI)  (FT/S)
CALUMET HARBOR    54      40/  8/  9   N/A
MICHIGAN CITY     56     340/ 11/ 12   N/A
BURNS HARBOR              20/ 10/ 11 1022.4F
SAINT JOSEPH      56     360/  4/  5 1022.7F
SOUTH LAKE BUOY   42 39  120/  6/  8 1023.0F         1
4 MI NW BRIDGMAN  54 56  350/  8/  8   N/A           1
MICHIGAN CITY     53 56   10/  8/  8   N/A           1/ 4

$$
&&


USA.gov is the U.S. government's official web portal to all federal, state and local government web resources and services.